Weather History for Belmar-Farmingdale, NJ

Change the Weather History Date:

Wednesday, November 21, 2012

  Actual Average Record
Temperature  
Mean Temperature 44 °F -  
Max Temperature 51 °F 50 °F 64 °F (2003)
Min Temperature 37 °F 36 °F 24 °F (2000)
Degree Days  
Heating Degree Days 21    
Moisture  
Dew Point 34 °F    
Average Humidity 70    
Maximum Humidity 93    
Minimum Humidity 44    
Precipitation  
Precipitation 0.00 in - - ()
Sea Level Pressure  
Sea Level Pressure 30.18 in    
Wind  
Wind Speed 6 mph (NNE)    
Max Wind Speed 13 mph    
Max Gust Speed 17 mph    
Visibility 10 miles    
Events      
Averages and records for this station are not official NWS values.
T = Trace of Precipitation, MM = Missing Value Source: NWS Daily Summary

Daily Weather History Graph

Daily Weather History Graph

Search for Another Location

Airport:

Trip Planner

Search our weather history database for the weather conditions in past years. The results will help you decide how hot, cold, wet, or windy it might be!

Date:

Astronomy

Nov. 21, 2012 Rise Set
Actual Time 6:49 AM EST 4:35 PM EST
Civil Twilight 6:19 AM EST 5:04 PM EST
Nautical Twilight 5:46 AM EST 5:37 PM EST
Astronomical Twilight 5:14 AM EST 6:10 PM EST
Moon 12:50 PM EST (11/21) 12:05 AM EST (11/21)
Length of Visible Light 10h 44m
Length of Day
9h 45m
First Quarter, 61% of the Moon is Illuminated
Nov 21
First Quarter
Nov 28
Full
Dec 6
Last Quarter
Dec 13
New
Dec 20
First Quarter

Hourly Weather History & Observations

Time (EST) Temp. Windchill Dew Point Humidity Pressure Visibility Wind Dir Wind Speed Gust Speed Precip Events Conditions
12:15 AM 39.2 °F 37.0 °F 35.6 °F 87% 30.14 in 10.0 mi North 3.5 mph - N/A   Clear
12:35 AM 39.2 °F 35.9 °F 35.6 °F 87% 30.13 in 10.0 mi NNW 4.6 mph - N/A   Mostly Cloudy
12:55 AM 39.2 °F 35.0 °F 37.4 °F 93% 30.13 in 10.0 mi NNW 5.8 mph - N/A   Mostly Cloudy
1:15 AM 39.2 °F 35.9 °F 37.4 °F 93% 30.13 in 10.0 mi NNW 4.6 mph - N/A   Overcast
1:35 AM 39.2 °F 34.2 °F 37.4 °F 93% 30.13 in 10.0 mi North 6.9 mph - N/A   Scattered Clouds
1:55 AM 41.0 °F 37.1 °F 37.4 °F 87% 30.13 in 10.0 mi North 5.8 mph - N/A   Partly Cloudy
2:15 AM 42.8 °F 39.3 °F 37.4 °F 81% 30.13 in 10.0 mi North 5.8 mph - N/A   Clear
2:35 AM 42.8 °F 39.3 °F 37.4 °F 81% 30.14 in 10.0 mi North 5.8 mph - N/A   Clear
2:55 AM 42.8 °F 38.6 °F 37.4 °F 81% 30.13 in 10.0 mi North 6.9 mph - N/A   Clear
3:15 AM 42.8 °F 39.3 °F 37.4 °F 81% 30.13 in 10.0 mi North 5.8 mph - N/A   Clear
3:35 AM 42.8 °F 38.6 °F 37.4 °F 81% 30.14 in 10.0 mi North 6.9 mph - N/A   Clear
3:55 AM 41.0 °F 36.4 °F 37.4 °F 87% 30.14 in 10.0 mi North 6.9 mph - N/A   Clear
4:15 AM 41.0 °F 37.1 °F 37.4 °F 87% 30.14 in 10.0 mi North 5.8 mph - N/A   Partly Cloudy
4:35 AM 42.8 °F 38.6 °F 35.6 °F 76% 30.15 in 10.0 mi North 6.9 mph - N/A   Scattered Clouds
4:55 AM 41.0 °F 37.1 °F 35.6 °F 81% 30.15 in 10.0 mi North 5.8 mph - N/A   Scattered Clouds
5:15 AM 41.0 °F 38.0 °F 35.6 °F 81% 30.16 in 10.0 mi North 4.6 mph - N/A   Overcast
5:35 AM 42.8 °F 38.6 °F 37.4 °F 81% 30.16 in 10.0 mi North 6.9 mph - N/A   Overcast
5:55 AM 41.0 °F 37.1 °F 35.6 °F 81% 30.16 in 10.0 mi NNE 5.8 mph - N/A   Scattered Clouds
6:15 AM 41.0 °F 37.1 °F 37.4 °F 87% 30.17 in 10.0 mi North 5.8 mph - N/A   Clear
6:35 AM 41.0 °F 37.1 °F 37.4 °F 87% 30.17 in 10.0 mi North 5.8 mph - N/A   Clear
6:55 AM 41.0 °F 37.1 °F 37.4 °F 87% 30.17 in 10.0 mi NNE 5.8 mph - N/A   Clear
7:15 AM 41.0 °F 38.0 °F 37.4 °F 87% 30.17 in 10.0 mi North 4.6 mph - N/A   Clear
7:35 AM 41.0 °F 37.1 °F 37.4 °F 87% 30.18 in 10.0 mi North 5.8 mph - N/A   Clear
7:55 AM 41.0 °F 37.1 °F 37.4 °F 87% 30.18 in 10.0 mi North 5.8 mph - N/A   Clear
8:15 AM 42.8 °F 38.0 °F 37.4 °F 81% 30.19 in 10.0 mi North 8.1 mph - N/A   Clear
8:35 AM 44.6 °F 40.2 °F 37.4 °F 76% 30.19 in 10.0 mi North 8.1 mph - N/A   Clear
8:55 AM 44.6 °F 40.2 °F 37.4 °F 76% 30.19 in 10.0 mi North 8.1 mph - N/A   Clear
9:15 AM 46.4 °F 41.9 °F 37.4 °F 71% 30.19 in 10.0 mi North 9.2 mph - N/A   Clear
9:35 AM 46.4 °F 41.9 °F 37.4 °F 71% 30.20 in 10.0 mi NNE 9.2 mph - N/A   Clear
9:55 AM 48.2 °F - 37.4 °F 66% 30.20 in 10.0 mi NNE 9.2 mph - N/A   Clear
10:15 AM 48.2 °F - 37.4 °F 66% 30.20 in 10.0 mi NNE 9.2 mph - N/A   Clear
10:35 AM 48.2 °F - 35.6 °F 62% 30.20 in 10.0 mi NE 10.4 mph - N/A   Clear
10:55 AM 48.2 °F - 35.6 °F 62% 30.20 in 10.0 mi NNE 10.4 mph - N/A   Clear
11:15 AM 48.2 °F - 35.6 °F 62% 30.20 in 10.0 mi NNE 11.5 mph - N/A   Clear
11:35 AM 50.0 °F - 35.6 °F 58% 30.19 in 10.0 mi NNE 8.1 mph - N/A   Clear
11:55 AM 50.0 °F - 35.6 °F 58% 30.19 in 10.0 mi NNE 8.1 mph - N/A   Clear
12:15 PM 50.0 °F - 37.4 °F 62% 30.19 in 10.0 mi NNE 12.7 mph 16.1 mph N/A   Partly Cloudy
12:35 PM 50.0 °F - 35.6 °F 58% 30.19 in 10.0 mi North 11.5 mph - N/A   Clear
12:55 PM 51.8 °F - 35.6 °F 54% 30.18 in 10.0 mi NNE 10.4 mph - N/A   Clear
1:15 PM 51.8 °F - 33.8 °F 50% 30.18 in 10.0 mi NNE 12.7 mph - N/A   Clear
1:35 PM 51.8 °F - 32.0 °F 47% 30.17 in 10.0 mi NNE 12.7 mph - N/A   Clear
1:55 PM 51.8 °F - 30.2 °F 44% 30.17 in 10.0 mi NE 12.7 mph 17.3 mph N/A   Clear
2:15 PM 51.8 °F - 30.2 °F 44% 30.16 in 10.0 mi NE 10.4 mph - N/A   Clear
2:35 PM 51.8 °F - 30.2 °F 44% 30.16 in 10.0 mi ENE 8.1 mph - N/A   Clear
2:55 PM 51.8 °F - 30.2 °F 44% 30.16 in 10.0 mi North 8.1 mph - N/A   Clear
3:15 PM 51.8 °F - 30.2 °F 44% 30.17 in 10.0 mi NE 9.2 mph - N/A   Clear
3:35 PM 51.8 °F - 30.2 °F 44% 30.17 in 10.0 mi NE 8.1 mph - N/A   Clear
3:55 PM 51.8 °F - 30.2 °F 44% 30.17 in 10.0 mi NE 6.9 mph - N/A   Clear
4:15 PM 50.0 °F - 30.2 °F 47% 30.18 in 10.0 mi NE 5.8 mph - N/A   Clear
4:35 PM 48.2 °F - 30.2 °F 50% 30.19 in 10.0 mi NE 4.6 mph - N/A   Clear
4:55 PM 48.2 °F - 30.2 °F 50% 30.19 in 10.0 mi NNE 3.5 mph - N/A   Clear
5:15 PM 48.2 °F - 32.0 °F 54% 30.19 in 10.0 mi NNE 3.5 mph - N/A   Clear
5:35 PM 46.4 °F - 32.0 °F 57% 30.20 in 10.0 mi Calm Calm - N/A   Clear
5:55 PM 44.6 °F - 32.0 °F 61% 30.20 in 10.0 mi Calm Calm - N/A   Clear
6:15 PM 44.6 °F - 32.0 °F 61% 30.20 in 10.0 mi Calm Calm - N/A   Clear
6:35 PM 42.8 °F - 32.0 °F 66% 30.20 in 10.0 mi Calm Calm - N/A   Clear
6:55 PM 41.0 °F 39.0 °F 30.2 °F 65% 30.21 in 10.0 mi North 3.5 mph - N/A   Clear
7:15 PM 39.2 °F 35.9 °F 32.0 °F 75% 30.21 in 10.0 mi North 4.6 mph - N/A   Clear
7:35 PM 41.0 °F 39.0 °F 32.0 °F 70% 30.22 in 10.0 mi North 3.5 mph - N/A   Clear
7:55 PM 37.4 °F 32.8 °F 30.2 °F 75% 30.21 in 10.0 mi North 5.8 mph - N/A   Clear
8:15 PM 37.4 °F 33.8 °F 30.2 °F 75% 30.22 in 10.0 mi North 4.6 mph - N/A   Clear
8:35 PM 37.4 °F 33.8 °F 30.2 °F 75% 30.22 in 10.0 mi North 4.6 mph - N/A   Clear
8:55 PM 37.4 °F 33.8 °F 30.2 °F 75% 30.22 in 10.0 mi North 4.6 mph - N/A   Clear
9:15 PM 39.2 °F 35.0 °F 30.2 °F 70% 30.22 in 10.0 mi North 5.8 mph - N/A   Clear
9:35 PM 39.2 °F 37.0 °F 30.2 °F 70% 30.22 in 10.0 mi North 3.5 mph - N/A   Clear
9:55 PM 37.4 °F 32.8 °F 30.2 °F 75% 30.22 in 10.0 mi North 5.8 mph - N/A   Clear
10:15 PM 39.2 °F 35.0 °F 32.0 °F 75% 30.22 in 10.0 mi North 5.8 mph - N/A   Clear
10:35 PM 41.0 °F 39.0 °F 33.8 °F 76% 30.22 in 10.0 mi North 3.5 mph - N/A   Clear
10:55 PM 39.2 °F 35.9 °F 33.8 °F 81% 30.22 in 10.0 mi North 4.6 mph - N/A   Clear
11:15 PM 41.0 °F 38.0 °F 33.8 °F 76% 30.21 in 10.0 mi NNE 4.6 mph - N/A   Clear
11:35 PM 41.0 °F 38.0 °F 33.8 °F 76% 30.22 in 10.0 mi NNE 4.6 mph - N/A   Clear
11:55 PM 37.4 °F 33.8 °F 32.0 °F 81% 30.22 in 10.0 mi North 4.6 mph - N/A   Clear